Regional Weather Roundup
Issued by NWS

Home | Current Version | Previous Version | Graphics & Text | Print | Product List | Glossary On
Versions: 1 2 3 4 5 6 7 8 9 10 11 12 13 14 15 16 17 18 19 20 21 22 23 24 25 26 27
000
ASUS45 KCYS 250310
RWRWY

WYOMING REGIONAL WEATHER ROUNDUP
NATIONAL WEATHER SERVICE CHEYENNE WY
900 PM MDT THU APR 24 2014

NOTE:  "FAIR" INDICATES FEW OR NO CLOUDS BELOW 12,000 FEET
WITH NO SIGNIFICANT WEATHER AND/OR OBSTRUCTIONS TO VISIBILITY.

WYZ001-250400-
YELLOWSTONE NATIONAL PARK

CITY           SKY/WX    TMP DP  RH WIND       PRES   REMARKS
LK YELLOWSTONE   N/A     31  30  96 CALM      29.96R
W YELLOWSTONE  NOT AVBL

$$
WYZ002>013-054>058-071-098>099-250400-
NORTHERN WYOMING

CITY           SKY/WX    TMP DP  RH WIND       PRES   REMARKS
JACKSON        MOCLDY    36  30  80 SW8       29.96R WCI  29
CODY           PTCLDY    46  30  53 W13       29.85S
GREYBULL       CLOUDY    56  25  30 W17       29.81R
WORLAND        CLOUDY    54  25  32 N8        29.81R
SHERIDAN         N/A     45  23  42 W10         N/A
BUFFALO        MOCLDY    48  25  40 CALM      29.83R
GILLETTE       MOCLDY    41  27  57 CALM      29.79R
HULETT         FAIR      45  28  53 E5        29.80
NEWCASTLE      FAIR      46  23  39 CALM      29.77

$$
WYZ014>020-022>026-101>103-250400-
CENTRAL WYOMING

CITY           SKY/WX    TMP DP  RH WIND       PRES   REMARKS
BIG PINEY      MOCLDY    39  21  48 W7        30.00S WCI  34
PINEDALE       MOCLDY    37  27  65 CALM      30.01S
DUBOIS         CLOUDY    37  23  56 NW13G18   29.94S WCI  29
LANDER         MOCLDY    50  21  32 VRB5      29.87R
RIVERTON       CLOUDY    47  22  37 NW5       29.89R
CASPER         CLOUDY    51  21  30 W13       29.86R
DOUGLAS        CLOUDY    56  25  30 W20G25    29.81R

$$
WYZ021-027>030-104>119-250400-
SOUTHERN WYOMING

CITY           SKY/WX    TMP DP  RH WIND       PRES   REMARKS
EVANSTON       MOCLDY    44  21  40 W13       30.00S
KEMMERER       MOCLDY    39  21  48 W6        30.00S WCI  35
FORT BRIDGER   FAIR      43  23  44 W8        30.02S
ROCK SPRINGS   CLOUDY    46  18  32 NW10      30.00
DIXON          CLOUDY    47  24  40 W5        30.02R
RAWLINS        CLOUDY    47  19  33 W20G25    29.98R
SARATOGA       CLOUDY    46  25  42 SW15      30.02R
LARAMIE        CLOUDY    47  17  30 W23       29.96R
CHEYENNE       CLOUDY    52  20  28 SW12      29.92R
TORRINGTON     CLOUDY    56  24  29 W6        29.80R
PINE BLUFFS    CLOUDY    50  27  40 S9        29.90R

$$



USA.gov is the U.S. government's official web portal to all federal, state and local government web resources and services.